Location: Navalmoral
(40.4603°N, 4.7686°W)
Time: 06:47:02
(UTC+00:00)

Iridium 4 Rocket - Pass Details

Date: 05 August 2024
Orbit: 581 x 894 km, 86.9° (Epoch: 13 September)

Event Time Altitude Azimuth Distance (km) Brightness Sun altitude
Rises 22:33:07 0° 1° (N) 3,471 7.8 -27.3°
Reaches altitude 10° 22:35:40 10° 5° (N) 2,499 6.8 -27.5°
Enters shadow 22:40:38 56° 55° (NE) 974 3.9 -28.0°
